Location: Unspecified
(0.0000°N, 0.0000°E)
Time: 20:30:16
(UTC+00:00)

Altair - All Passes

Search period start: 28 July 2014 00:00
Search period end: 07 August 2014 00:00
Orbit: 1502 x 1682 km, 47.2° (Epoch: 26 July)

Date Brightness Start Highest point End Pass type
(mag) Time Alt. Az. Time Alt. Az. Time Alt. Az.
28 Jul - 01:42:15 10° WSW 01:50:50 42° NW 01:59:18 10° NNE visible
28 Jul - 10:25:01 10° NNE 10:30:31 16° NE 10:36:04 10° E daylight
28 Jul - 12:25:35 10° NW 12:35:30 83° NE 12:45:41 10° SE daylight
28 Jul - 14:33:30 10° W 14:40:29 21° SW 14:47:34 10° S daylight
28 Jul - 23:12:51 10° SSW 23:21:14 35° SE 23:29:20 10° ENE night (unlit)
29 Jul - 01:16:53 10° WSW 01:25:43 48° NW 01:34:24 10° NNE visible
29 Jul - 10:00:48 10° NNE 10:05:16 14° NE 10:09:47 10° ENE daylight
29 Jul - 12:00:29 10° NNW 12:10:20 75° NE 12:20:28 10° SE daylight
29 Jul - 14:07:44 10° W 14:15:15 24° SW 14:22:53 10° S daylight
29 Jul - 22:47:59 10° S 22:56:04 31° SE 23:03:54 10° ENE night (unlit)
30 Jul - 00:51:34 10° SW 01:00:36 54° NW 01:09:27 10° NNE visible
30 Jul - 09:36:59 10° NNE 09:40:00 12° NE 09:43:02 10° ENE daylight
30 Jul - 11:35:26 10° NNW 11:45:11 68° NE 11:55:13 10° SE daylight
30 Jul - 13:42:04 10° W 13:50:01 27° SW 13:58:07 10° S daylight
30 Jul - 22:23:09 10° S 22:30:54 28° SE 22:38:23 10° ENE night (unlit)
31 Jul - 00:26:17 10° SW 00:35:30 60° NW 00:44:29 10° NNE visible
31 Jul - 11:10:25 10° NNW 11:20:02 61° NE 11:29:56 10° SE daylight
31 Jul - 13:16:29 10° WNW 13:24:48 30° SW 13:33:18 10° S daylight
31 Jul - 21:58:23 10° S 22:05:43 25° SE 22:12:49 10° E night (unlit)
01 Aug - 00:01:02 10° SW 00:10:23 68° NW 00:19:29 10° NNE visible
01 Aug - 02:13:38 10° NW 02:15:24 11° NW 02:17:10 10° NNW visible
01 Aug - 10:45:26 10° NNW 10:54:52 54° NE 11:04:36 10° SE daylight
01 Aug - 12:50:58 10° WNW 12:59:35 34° SW 13:08:27 10° SSE daylight
01 Aug - 21:33:40 10° S 21:40:31 22° SE 21:47:09 10° E night (unlit)
01 Aug - 23:35:49 10° SW 23:45:17 76° NW 23:54:27 10° NE night (unlit)
02 Aug - 01:46:32 10° WNW 01:50:10 13° NW 01:53:48 10° NNW visible
02 Aug - 10:20:28 10° NNW 10:29:43 48° NE 10:39:14 10° ESE daylight
02 Aug - 12:25:30 10° WNW 12:34:23 38° SW 12:43:32 10° SSE daylight
02 Aug - 21:09:02 10° S 21:15:18 19° SE 21:21:23 10° E night (unlit)
02 Aug - 23:10:38 10° SW 23:20:10 84° NW 23:29:23 10° NE night (unlit)
03 Aug - 01:20:10 10° WNW 01:24:57 15° NW 01:29:42 10° NNW visible
03 Aug - 09:55:33 10° NNW 10:04:33 43° NE 10:13:50 10° ESE daylight
03 Aug - 12:00:06 10° WNW 12:09:12 43° SW 12:18:36 10° SSE daylight
03 Aug - 20:44:30 10° S 20:50:04 17° SE 20:55:30 10° E visible
03 Aug - 22:45:28 10° SW 22:55:03 87° SE 23:04:18 10° NE night (unlit)
04 Aug - 00:54:06 10° W 00:59:45 17° NW 01:05:20 10° N visible
04 Aug - 09:30:40 10° NNW 09:39:24 38° NE 09:48:22 10° ESE daylight
04 Aug - 11:34:45 10° WNW 11:44:01 48° SW 11:53:37 10° SSE daylight
04 Aug - 20:20:07 10° SSE 20:24:49 14° SE 20:29:25 10° ESE visible
04 Aug - 22:20:20 10° SW 22:29:56 79° SE 22:39:10 10° NE night (unlit)
05 Aug - 00:28:13 10° W 00:34:33 20° NW 00:40:50 10° N visible
05 Aug - 09:05:50 10° NNW 09:14:14 34° NE 09:22:52 10° ESE daylight
05 Aug - 11:09:26 10° NW 11:18:51 53° SW 11:28:36 10° SSE daylight
05 Aug - 19:56:01 10° SSE 19:59:32 12° SE 20:03:00 10° ESE visible
05 Aug - 21:55:14 10° SSW 22:04:49 71° SE 22:14:01 10° NE visible
06 Aug - 00:02:26 10° W 00:09:23 23° NW 00:16:13 10° N night (unlit)
06 Aug - 08:41:02 10° N 08:49:03 30° NE 08:57:18 10° ESE daylight
06 Aug - 10:44:10 10° NW 10:53:41 60° SW 11:03:34 10° SSE daylight
06 Aug - 19:32:47 10° SSE 19:34:15 10° SE 19:35:42 10° SE visible
06 Aug - 21:30:10 10° SSW 21:39:42 63° SE 21:48:50 10° NE visible
06 Aug - 23:36:46 10° WSW 23:44:13 26° NW 23:51:32 10° N night (unlit)
